Home   Weather   Des Moines   Past weeks
Flag for USA

Past Weather in Des Moines, Iowa, USA — Yesterday and Last 2 Weeks

Now
53 °F

Low clouds.


Feels Like: 49 °F
Forecast: 66 / 44 °F
Wind: 14 mph from East

Location: Des Moines International Airport

Current Time: Mar 28, 2020 at 1:27:22 pm

Latest Report: Mar 28, 2020 at 12:54 pm


Visibility: 10 mi

Pressure: 29.41 "Hg

Humidity: 93%

Dew Point: 51 °F

Location of Des MoinesLocation

Past Weather in Des Moines — Graph

°F

Des Moines Temperature Yesterday

Maximum temperature yesterday: 49 °F (at 7:54 pm)
Minimum temperature yesterday: 44 °F (at 5:33 am)
Average temperature yesterday: 47 °F

High & Low Weather Summary for the Past Weeks

 TemperatureHumidityPressure
High64 °F (Mar 19, 3:54 pm)100% (Mar 18, 10:54 pm)30.68 "Hg (Mar 18, 10:54 pm)
Low23 °F (Mar 20, 8:54 am)28% (Mar 13, 4:54 pm)29.48 "Hg (Mar 28, 11:54 am)
Average42 °F81%30.09 "Hg
* Reported Mar 13 11:54 am — Mar 28 11:54 am, Des Moines. Weather by CustomWeather, © 2020

Note: Actual official high and low records may vary slightly from our data, if they occured in-between our weather recording intervals... More about our weather records

Des Moines Weather History for the Previous 24 Hours

Scroll right to see more
 ConditionsComfort  
Time TempWeatherWind HumidityBarometerVisibility
11:54 am
Sat, Mar 28
49 °FLow clouds.10 mph97%29.48 "Hg8 mi
11:44 am49 °FLow clouds.15 mph97%29.49 "Hg7 mi
11:33 am48 °FLight rain. Fog.15 mph100%29.51 "Hg2 mi
11:11 am48 °FLight rain. Fog.15 mph100%29.53 "Hg1 mi
10:54 am48 °FFog.13 mph100%29.54 "Hg0 mi
10:37 am48 °FFog.15 mph100%29.55 "Hg1 mi
9:54 am49 °FLight rain. Fog.7 mph100%29.62 "Hg5 mi
9:44 am48 °FLight rain. Low clouds.7 mph100%29.62 "Hg7 mi
9:34 am49 °FThunderstorms. Fog.8 mph100%29.60 "Hg3 mi
9:19 am49 °FThunderstorms. Fog.9 mph97%29.64 "Hg0 mi
8:54 am49 °FFog.10 mph100%29.60 "Hg0 mi
8:40 am49 °FFog.8 mph100%29.58 "Hg0 mi
8:29 am48 °FFog.13 mph100%29.56 "Hg0 mi
7:54 am48 °FFog.7 mph100%29.60 "Hg0 mi
7:33 am48 °FFog.8 mph100%29.58 "Hg0 mi
7:05 am48 °FFog.8 mph100%29.58 "Hg1 mi
6:54 am48 °FFog.7 mph96%29.59 "Hg3 mi
5:54 am48 °FFog.No wind96%29.61 "Hg3 mi
5:01 am48 °FFog.6 mph100%29.60 "Hg3 mi
3:54 am48 °FFog.6 mph100%29.60 "Hg1 mi
3:26 am48 °FFog.7 mph100%29.57 "Hg1 mi
3:24 am48 °FThunderstorms. Fog.9 mph96%29.56 "Hg0 mi
2:54 am48 °FThunderstorms. Fog.7 mph100%29.67 "Hg0 mi
2:39 am48 °FThunderstorms. Fog.No wind100%29.64 "Hg0 mi
1:54 am48 °FFog.7 mph100%29.61 "Hg0 mi
12:54 am49 °FFog.5 mph97%29.65 "Hg0 mi
12:20 am48 °FLight rain. Fog.5 mph100%29.68 "Hg1 mi
11:54 pm
Fri, Mar 27
49 °FLight rain. Fog.3 mph97%29.67 "Hg1 mi
11:17 pm49 °FDrizzle. Fog.7 mph97%29.69 "Hg1 mi
10:54 pm49 °FLight rain. Fog.3 mph100%29.69 "Hg1 mi
9:54 pm49 °FDrizzle. Fog.6 mph97%29.65 "Hg1 mi
9:23 pm49 °FDrizzle. Fog.10 mph97%29.63 "Hg1 mi
8:54 pm49 °FLight rain. Fog.8 mph93%29.69 "Hg1 mi
7:54 pm49 °FDrizzle. Fog.5 mph93%29.69 "Hg1 mi
6:54 pm48 °FDrizzle. Fog.10 mph96%29.68 "Hg1 mi
6:35 pm48 °FDrizzle. Fog.8 mph100%29.66 "Hg1 mi
5:54 pm48 °FDrizzle. Fog.5 mph96%29.69 "Hg1 mi
4:54 pm48 °FDrizzle. Fog.6 mph96%29.70 "Hg1 mi
3:54 pm48 °FDrizzle. Fog.8 mph96%29.69 "Hg1 mi
2:54 pm48 °FDrizzle. Fog.7 mph93%29.71 "Hg2 mi
2:29 pm47 °FDrizzle. Fog.8 mph97%29.70 "Hg2 mi
1:54 pm48 °FLight rain. Fog.10 mph89%29.73 "Hg2 mi
1:32 pm48 °FLow clouds.9 mph86%29.75 "Hg7 mi
Weather by CustomWeather, © 2020

See weather overview

Advertising